Weather History for Syracuse, NY

Change the Weather History Date:

Wednesday, August 1, 2012

  Actual Average Record
Temperature  
Mean Temperature 75 °F 71 °F  
Max Temperature 86 °F 81 °F 96 °F (1933)
Min Temperature 64 °F 61 °F 46 °F (1947)
Degree Days  
Heating Degree Days 0 0  
Month to date heating degree days 0 0  
Since 1 June heating degree days 43 69  
Since 1 July heating degree days 0 8  
Cooling Degree Days 10 6  
Month to date cooling degree days 10 6  
Year to date cooling degree days 626 352  
Since 1 June cooling degree days 531 322  
Growing Degree Days 25 (Base 50)    
Moisture  
Dew Point 65 °F    
Average Humidity 78    
Maximum Humidity 100    
Minimum Humidity 55    
Precipitation  
Precipitation T in 0.12 in 0.95 in (1946)
Month to date precipitation T 0.12  
Year to date precipitation 16.76 21.14  
Snow  
Snow 0.00 in 0.00 in 0.00 in (2002)
Month to date snowfall 0.0 0.0  
Since 1 June snowfall 0.0 0.0  
Since 1 July snowfall 0.0 0.0  
Snow Depth 0.00 in    
Sea Level Pressure  
Sea Level Pressure 29.83 in    
Wind  
Wind Speed 5 mph (West)    
Max Wind Speed 18 mph    
Max Gust Speed 25 mph    
Visibility 10 miles    
Events Rain    
T = Trace of Precipitation, MM = Missing Value Source: NWS Daily Summary

Daily Weather History Graph

Daily Weather History Graph

Search for Another Location

Airport:

Trip Planner

Search our weather history database for the weather conditions in past years. The results will help you decide how hot, cold, wet, or windy it might be!

Date:

Astronomy

Aug. 01, 2012 Rise Set
Actual Time 5:55 AM EDT 8:25 PM EDT
Civil Twilight 5:23 AM EDT 8:57 PM EDT
Nautical Twilight 4:42 AM EDT 9:37 PM EDT
Astronomical Twilight 3:57 AM EDT 10:22 PM EDT
Moon 7:52 PM EDT (8/1) 5:22 AM EDT (8/1)
Length of Visible Light 15h 34m
Length of Day
14h 29m
Full, 100% of the Moon is Illuminated
Aug 1
Full
Aug 1
Full
Aug 9
Last Quarter
Aug 17
New
Aug 24
First Quarter

Hourly Weather History & Observations

Time (EDT) Temp. Heat Index Dew Point Humidity Pressure Visibility Wind Dir Wind Speed Gust Speed Precip Events Conditions
12:54 AM 66.9 °F - 64.9 °F 93% 29.84 in 10.0 mi Calm Calm - N/A   Overcast
1:54 AM 68.0 °F - 66.0 °F 93% 29.84 in 10.0 mi Calm Calm - N/A   Overcast
2:54 AM 66.9 °F - 64.0 °F 90% 29.83 in 10.0 mi Calm Calm - N/A   Overcast
3:54 AM 64.9 °F - 64.0 °F 97% 29.82 in 10.0 mi East 4.6 mph - N/A   Mostly Cloudy
4:54 AM 64.9 °F - 63.0 °F 93% 29.83 in 10.0 mi East 3.5 mph - N/A   Scattered Clouds
5:54 AM 64.0 °F - 63.0 °F 96% 29.83 in 10.0 mi East 3.5 mph - N/A   Mostly Cloudy
6:21 AM 64.4 °F - 62.6 °F 94% 29.85 in 10.0 mi East 3.5 mph - N/A   Overcast
6:54 AM 66.0 °F - 64.0 °F 93% 29.83 in 10.0 mi East 5.8 mph - N/A   Mostly Cloudy
7:44 AM 68.0 °F - 64.4 °F 88% 29.85 in 10.0 mi ESE 3.5 mph - N/A   Overcast
7:54 AM 68.0 °F - 64.9 °F 90% 29.84 in 10.0 mi SE 4.6 mph - N/A   Overcast
8:47 AM 71.6 °F - 64.4 °F 78% 29.86 in 10.0 mi Calm Calm - N/A   Mostly Cloudy
8:54 AM 72.0 °F - 66.0 °F 81% 29.85 in 10.0 mi SSE 3.5 mph - N/A   Mostly Cloudy
9:54 AM 75.9 °F - 64.9 °F 69% 29.84 in 10.0 mi Calm Calm - N/A   Mostly Cloudy
10:54 AM 79.0 °F - 66.9 °F 66% 29.84 in 10.0 mi Calm Calm - N/A   Mostly Cloudy
11:54 AM 80.1 °F 82.7 °F 68.0 °F 67% 29.83 in 10.0 mi WSW 11.5 mph - N/A   Overcast
12:54 PM 81.0 °F 83.8 °F 68.0 °F 65% 29.83 in 10.0 mi West 6.9 mph - N/A   Mostly Cloudy
1:54 PM 84.9 °F 88.2 °F 68.0 °F 57% 29.81 in 10.0 mi West 9.2 mph - N/A   Mostly Cloudy
2:54 PM 84.0 °F 86.5 °F 66.9 °F 56% 29.81 in 10.0 mi West 11.5 mph - N/A   Mostly Cloudy
3:54 PM 78.1 °F - 66.9 °F 68% 29.83 in 10.0 mi West 9.2 mph - 0.00 in Rain Light Rain
4:54 PM 75.0 °F - 70.0 °F 84% 29.82 in 10.0 mi SW 5.8 mph - 0.00 in   Overcast
5:54 PM 81.0 °F 83.3 °F 66.9 °F 62% 29.80 in 10.0 mi WNW 8.1 mph - N/A   Mostly Cloudy
6:54 PM 81.0 °F 82.7 °F 64.9 °F 58% 29.81 in 10.0 mi NW 9.2 mph - N/A   Partly Cloudy
7:54 PM 78.1 °F - 63.0 °F 60% 29.81 in 10.0 mi WNW 4.6 mph - N/A   Scattered Clouds
8:54 PM 75.9 °F - 63.0 °F 64% 29.82 in 10.0 mi West 4.6 mph - N/A   Partly Cloudy
9:54 PM 73.0 °F - 64.0 °F 73% 29.84 in 10.0 mi NNW 3.5 mph - N/A   Partly Cloudy
10:54 PM 70.0 °F - 64.9 °F 84% 29.85 in 10.0 mi Calm Calm - N/A   Partly Cloudy
11:54 PM 68.0 °F - 64.0 °F 87% 29.85 in 10.0 mi Calm Calm - N/A   Partly Cloudy